Weather History for Point Pleasant, WV

Change the Weather History Date:

Monday, October 3, 2011

  Actual Average (KHTS) Record (KHTS)
Temperature  
Mean Temperature 46 °F 61 °F  
Max Temperature 51 °F 72 °F 92 °F (1919)
Min Temperature 41 °F 49 °F 27 °F (1974)
Degree Days  
Heating Degree Days 19 6  
Month to date heating degree days 16  
Since 1 July heating degree days 74  
Cooling Degree Days 0 1  
Month to date cooling degree days 5  
Year to date cooling degree days 1116  
Moisture  
Dew Point 44 °F    
Average Humidity 88    
Maximum Humidity 100    
Minimum Humidity 66    
Precipitation  
Precipitation 0.00 in 0.08 in 1.42 in (1893)
Month to date precipitation 0.25  
Year to date precipitation 33.28  
Snow  
Snow 0.00 in - - ()
Month to date snowfall  
Since 1 September snowfall  
Snow Depth -    
Sea Level Pressure  
Sea Level Pressure 30.14 in    
Wind  
Wind Speed 1 mph (WSW)    
Max Wind Speed 8 mph    
Max Gust Speed -    
Visibility 10 miles    
Events Rain    
T = Trace of Precipitation, MM = Missing Value Source: NWS Daily Summary

Daily Weather History Graph

Daily Weather History Graph

Search for Another Location

Airport:

Trip Planner

Search our weather history database for the weather conditions in past years. The results will help you decide how hot, cold, wet, or windy it might be!

Date:

Astronomy

Oct. 03, 2011 Rise Set
Actual Time 7:25 AM EDT 7:08 PM EDT
Civil Twilight 6:59 AM EDT 7:34 PM EDT
Nautical Twilight 6:28 AM EDT 8:05 PM EDT
Astronomical Twilight 5:57 AM EDT 8:36 PM EDT
Moon 2:19 PM EDT (10/3) No Moon Set
Length of Visible Light 12h 35m
Length of Day
11h 42m
Waxing Crescent, 45% of the Moon is Illuminated
Oct 3
Waxing Crescent
Oct 3
First Quarter
Oct 11
Full
Oct 19
Last Quarter
Oct 26
New

Hourly Weather History & Observations

Time (EDT) Temp. Windchill Dew Point Humidity Pressure Visibility Wind Dir Wind Speed Gust Speed Precip Events Conditions
12:15 AM 48.2 °F - 37.4 °F 66% 30.05 in 10.0 mi Calm Calm - N/A   Clear
12:35 AM 48.2 °F - 37.4 °F 66% 30.05 in 10.0 mi NNW 3.5 mph - N/A   Scattered Clouds
12:55 AM 48.2 °F - 37.4 °F 66% 30.05 in 10.0 mi Calm Calm - N/A   Mostly Cloudy
1:35 AM 46.4 °F - 39.2 °F 76% 30.07 in 10.0 mi Calm Calm - N/A   Overcast
1:55 AM 46.4 °F - 39.2 °F 76% 30.07 in 10.0 mi Calm Calm - N/A   Mostly Cloudy
2:15 AM 46.4 °F - 39.2 °F 76% 30.07 in 10.0 mi Calm Calm - N/A   Mostly Cloudy
2:35 AM 46.4 °F - 39.2 °F 76% 30.07 in 10.0 mi Calm Calm - N/A   Overcast
2:55 AM 46.4 °F - 41.0 °F 81% 30.07 in 10.0 mi Calm Calm - N/A   Overcast
3:15 AM 44.6 °F - 41.0 °F 87% 30.07 in 10.0 mi Calm Calm - N/A   Mostly Cloudy
3:55 AM 42.8 °F - 41.0 °F 93% 30.08 in 10.0 mi Calm Calm - N/A   Scattered Clouds
4:15 AM 42.8 °F - 41.0 °F 93% 30.08 in 10.0 mi Calm Calm - N/A   Mostly Cloudy
4:55 AM 44.6 °F - 41.0 °F 87% 30.09 in 10.0 mi Calm Calm - N/A   Overcast
5:15 AM 44.6 °F - 41.0 °F 87% 30.10 in 10.0 mi Calm Calm - N/A   Overcast
5:35 AM 44.6 °F 43.1 °F 41.0 °F 87% 30.10 in 10.0 mi WNW 3.5 mph - N/A   Overcast
5:55 AM 44.6 °F - 41.0 °F 87% 30.11 in 10.0 mi Calm Calm - N/A   Overcast
6:15 AM 44.6 °F - 41.0 °F 87% 30.11 in 10.0 mi Calm Calm - N/A   Overcast
6:35 AM 44.6 °F - 41.0 °F 87% 30.11 in 10.0 mi Calm Calm - N/A   Overcast
6:55 AM 42.8 °F - 41.0 °F 93% 30.11 in 10.0 mi Calm Calm - N/A   Mostly Cloudy
7:15 AM 42.8 °F - 41.0 °F 93% 30.11 in 10.0 mi Calm Calm - N/A   Mostly Cloudy
7:35 AM 41.0 °F - 41.0 °F 100% 30.11 in 10.0 mi Calm Calm - N/A   Scattered Clouds
7:55 AM 42.8 °F - 41.0 °F 93% 30.12 in 10.0 mi Calm Calm - N/A   Scattered Clouds
8:15 AM 42.8 °F - 41.0 °F 93% 30.13 in 10.0 mi Calm Calm - N/A   Scattered Clouds
8:35 AM 44.6 °F - 41.0 °F 87% 30.13 in 10.0 mi Calm Calm - N/A   Scattered Clouds
8:55 AM 44.6 °F - 42.8 °F 93% 30.13 in 10.0 mi Calm Calm - N/A   Scattered Clouds
9:15 AM 46.4 °F 45.2 °F 42.8 °F 87% 30.13 in 10.0 mi SW 3.5 mph - N/A   Clear
9:35 AM 46.4 °F - 42.8 °F 87% 30.14 in 10.0 mi Calm Calm - N/A   Clear
9:55 AM 46.4 °F - 42.8 °F 87% 30.15 in 10.0 mi Calm Calm - N/A   Clear
10:15 AM 46.4 °F - 44.6 °F 93% 30.16 in 10.0 mi Calm Calm - N/A Rain Light Rain
10:35 AM 46.4 °F 45.2 °F 44.6 °F 93% 30.16 in 10.0 mi West 3.5 mph - N/A Rain Light Rain
10:55 AM 46.4 °F 44.3 °F 44.6 °F 93% 30.16 in 7.0 mi WSW 4.6 mph - N/A Rain Light Rain
11:55 AM 46.4 °F 44.3 °F 44.6 °F 93% 30.17 in 10.0 mi West 4.6 mph - N/A   Scattered Clouds
12:15 PM 48.2 °F - 46.4 °F 93% 30.16 in 10.0 mi Calm Calm - N/A   Mostly Cloudy
12:35 PM 50.0 °F - 46.4 °F 87% 30.15 in 10.0 mi WSW 4.6 mph - N/A   Mostly Cloudy
12:55 PM 50.0 °F - 46.4 °F 87% 30.16 in 10.0 mi WSW 3.5 mph - N/A   Mostly Cloudy
1:15 PM 50.0 °F - 46.4 °F 87% 30.16 in 10.0 mi WSW 3.5 mph - N/A   Overcast
1:35 PM 50.0 °F - 46.4 °F 87% 30.16 in 5.0 mi Calm Calm - N/A Rain Light Rain
2:15 PM 50.0 °F - 46.4 °F 87% 30.15 in 10.0 mi SSW 3.5 mph - N/A   Unknown
2:35 PM 50.0 °F - 46.4 °F 87% 30.15 in 10.0 mi SW 6.9 mph - N/A Rain Light Rain
2:55 PM 50.0 °F - 48.2 °F 94% 30.15 in 7.0 mi SW 8.1 mph - N/A Rain Light Rain
3:15 PM 50.0 °F - 48.2 °F 94% 30.16 in 10.0 mi WSW 4.6 mph - N/A   Mostly Cloudy
3:35 PM 50.0 °F - 46.4 °F 87% 30.16 in 10.0 mi WSW 3.5 mph - N/A   Scattered Clouds
4:15 PM 51.8 °F - 48.2 °F 88% 30.15 in 10.0 mi SW 5.8 mph - N/A   Mostly Cloudy
4:35 PM 50.0 °F - 48.2 °F 94% 30.16 in 10.0 mi Calm Calm - N/A   Mostly Cloudy
4:55 PM 50.0 °F - 48.2 °F 94% 30.16 in 10.0 mi Calm Calm - N/A   Overcast
5:15 PM 50.0 °F - 46.4 °F 87% 30.16 in 10.0 mi Calm Calm - N/A   Mostly Cloudy
5:35 PM 50.0 °F - 46.4 °F 87% 30.17 in 10.0 mi SW 4.6 mph - N/A   Scattered Clouds
6:15 PM 50.0 °F - 46.4 °F 87% 30.17 in 10.0 mi Calm Calm - N/A   Scattered Clouds
6:35 PM 50.0 °F - 46.4 °F 87% 30.17 in 10.0 mi SW 3.5 mph - N/A   Mostly Cloudy
6:55 PM 50.0 °F - 48.2 °F 94% 30.18 in 10.0 mi Calm Calm - N/A   Overcast
7:15 PM 50.0 °F - 48.2 °F 94% 30.19 in 10.0 mi Calm Calm - N/A   Overcast
7:35 PM 50.0 °F - 48.2 °F 94% 30.19 in 10.0 mi Calm Calm - N/A   Overcast
7:55 PM 50.0 °F - 48.2 °F 94% 30.19 in 10.0 mi Calm Calm - N/A   Overcast
8:35 PM 50.0 °F - 46.4 °F 87% 30.20 in 10.0 mi Calm Calm - N/A   Overcast
8:55 PM 50.0 °F - 48.2 °F 94% 30.20 in 10.0 mi Calm Calm - N/A   Mostly Cloudy
9:35 PM 50.0 °F - 48.2 °F 94% 30.20 in 10.0 mi Calm Calm - N/A   Overcast
9:55 PM 50.0 °F - 48.2 °F 94% 30.20 in 10.0 mi Calm Calm - N/A   Overcast
10:15 PM 50.0 °F - 48.2 °F 94% 30.20 in 10.0 mi Calm Calm - N/A   Overcast
10:35 PM 50.0 °F - 48.2 °F 94% 30.20 in 10.0 mi Calm Calm - N/A   Overcast
10:55 PM 50.0 °F - 48.2 °F 94% 30.20 in 10.0 mi Calm Calm - N/A   Overcast
11:15 PM 50.0 °F - 48.2 °F 94% 30.20 in 10.0 mi Calm Calm - N/A   Overcast
11:35 PM 50.0 °F - 48.2 °F 94% 30.21 in 10.0 mi Calm Calm - N/A   Mostly Cloudy
11:55 PM 50.0 °F - 50.0 °F 100% 30.21 in 10.0 mi WSW 3.5 mph - N/A   Overcast